This is the latest recevied weather packets stored in our database for station/object WB3IGR. If no packets are shown the sender has not sent any weather packets the latest 10 day(s).
| Time | Temp. | Humidity | Pressure | Rain* | Wind** | Luminosity | Snow |
|---|---|---|---|---|---|---|---|
| 1777391087 | 13.33° C | 72% | 1022.4 hPa | 0 mm | - | 228 W/m² | - |
| 1777390783 | 13.33° C | 73% | 1022.5 hPa | 0 mm | - | 210 W/m² | - |
| 1777390479 | 13.33° C | 74% | 1022.5 hPa | 0 mm | - | 204 W/m² | - |
| 1777390176 | 12.78° C | 73% | 1022.6 hPa | 0 mm | - | 218 W/m² | - |
| 1777389872 | 12.78° C | 75% | 1022.7 hPa | 0 mm | - | 220 W/m² | - |
| 1777389569 | 12.78° C | 74% | 1022.7 hPa | 0 mm | - | 200 W/m² | - |
| 1777389266 | 12.78° C | 75% | 1022.8 hPa | 0 mm | - | 186 W/m² | - |
| 1777388964 | 12.78° C | 75% | 1022.8 hPa | 0 mm | - | 174 W/m² | - |
| 1777388661 | 12.78° C | 73% | 1022.9 hPa | 0 mm | - | 164 W/m² | - |
| 1777388357 | 12.78° C | 73% | 1023.1 hPa | 0 mm | - | 174 W/m² | - |
| 1777388057 | 12.78° C | 75% | 1023 hPa | 0 mm | - | 200 W/m² | - |
| 1777387754 | 12.78° C | 73% | 1023 hPa | 0 mm | - | 205 W/m² | - |
| 1777387450 | 12.78° C | 73% | 1023.1 hPa | 0 mm | - | 188 W/m² | - |
| 1777387145 | 12.22° C | 74% | 1023 hPa | 0 mm | - | 164 W/m² | - |
| 1777386841 | 12.22° C | 75% | 1023.3 hPa | 0 mm | - | 140 W/m² | - |
| 1777386537 | 12.22° C | 74% | 1023.1 hPa | 0 mm | - | 105 W/m² | - |
| 1777386235 | 12.22° C | 75% | 1023 hPa | 0 mm | - | 86 W/m² | - |
| 1777385932 | 12.22° C | 73% | 1023.1 hPa | 0 mm | - | 70 W/m² | - |
| 1777385629 | 12.22° C | 73% | 1022.8 hPa | 0 mm | - | 63 W/m² | - |
| 1777385326 | 12.22° C | 73% | 1022.8 hPa | 0 mm | - | 69 W/m² | - |
| 1777385022 | 12.22° C | 74% | 1022.9 hPa | 0 mm | - | 75 W/m² | - |
| 1777384719 | 12.22° C | 72% | 1022.6 hPa | 0 mm | - | 81 W/m² | - |
| 1777384418 | 12.22° C | 72% | 1022.6 hPa | 0 mm | - | 79 W/m² | - |
| 1777384115 | 12.22° C | 72% | 1022.7 hPa | 0 mm | - | 82 W/m² | - |
| 1777383811 | 12.22° C | 72% | 1022.6 hPa | 0 mm | - | 88 W/m² | - |
* Rain latest hour (hover to see other rain measurements)
** Current wind speed in m/s (hover to see current wind gust speed)